Weather History for KSAF - July, 2013

Change the Weather History Date:

Wednesday, July 17, 2013

  Actual Average Record
Temperature  
Mean Temperature 63 °F -  
Max Temperature 77 °F 96 °F 98 °F (2006)
Min Temperature 51 °F 61 °F 51 °F (2013)
Degree Days  
Heating Degree Days 2    
Growing Degree Days 13 (Base 50)    
Moisture  
Dew Point 49 °F    
Average Humidity 62    
Maximum Humidity 96    
Minimum Humidity 34    
Precipitation  
Precipitation 0.00 in - - ()
Sea Level Pressure  
Sea Level Pressure 30.14 in    
Wind  
Wind Speed 8 mph (SSE)    
Max Wind Speed 18 mph    
Max Gust Speed 29 mph    
Visibility 10 miles    
Events      
Averages and records for this station are not official NWS values.
T = Trace of Precipitation, MM = Missing Value Source: NWS Daily Summary

Daily Weather History Graph

Daily Weather History Graph

Search for Another Location

Airport or City:

Trip Planner

Search our weather history database for the weather conditions in past years. The results will help you decide how hot, cold, wet, or windy it might be!

Date:

Astronomy

Jul. 17, 2013 Rise Set
Actual Time 6:01 AM MDT 8:19 PM MDT
Civil Twilight 5:32 AM MDT 8:48 PM MDT
Nautical Twilight 4:56 AM MDT 9:23 PM MDT
Astronomical Twilight 4:17 AM MDT 10:02 PM MDT
Moon 3:13 PM MDT (7/17) 1:06 AM MDT (7/17)
Length of Visible Light 15h 15m
Length of Day
14h 17m
Waxing Gibbous, 68% of the Moon is Illuminated
Jul 17
Waxing Gibbous
Jul 22
Full
Jul 29
Last Quarter
Aug 6
New
Aug 14
First Quarter

Hourly Weather History & Observations

Time (MDT) Temp. Dew Point Humidity Pressure Visibility Wind Dir Wind Speed Gust Speed Precip Events Conditions
12:53 AM 57.0 °F 53.1 °F 87% 30.13 in 10.0 mi SSW 6.9 mph - N/A   Mostly Cloudy
1:53 AM 57.0 °F 52.0 °F 83% 30.12 in 10.0 mi South 6.9 mph - N/A   Mostly Cloudy
2:53 AM 55.9 °F 52.0 °F 87% 30.12 in 10.0 mi South 3.5 mph - N/A   Mostly Cloudy
3:53 AM 53.1 °F 51.1 °F 93% 30.13 in 10.0 mi SSW 5.8 mph - N/A   Clear
4:53 AM 54.0 °F 51.1 °F 90% 30.16 in 10.0 mi Calm Calm - N/A   Clear
5:53 AM 51.1 °F 50.0 °F 96% 30.20 in 10.0 mi SW 3.5 mph - N/A   Clear
6:53 AM 53.1 °F 51.1 °F 93% 30.21 in 9.0 mi Calm Calm - N/A   Clear
7:53 AM 57.0 °F 51.1 °F 81% 30.21 in 10.0 mi Calm Calm - N/A   Scattered Clouds
8:53 AM 62.1 °F 51.1 °F 67% 30.21 in 10.0 mi SSE 9.2 mph - N/A   Clear
9:53 AM 64.9 °F 52.0 °F 63% 30.18 in 10.0 mi Variable 4.6 mph - N/A   Clear
10:53 AM 71.1 °F 46.0 °F 41% 30.15 in 10.0 mi SSE 11.5 mph 18.4 mph N/A   Clear
11:53 AM 71.1 °F 46.0 °F 41% 30.16 in 10.0 mi SE 16.1 mph 28.8 mph N/A   Mostly Cloudy
12:53 PM 73.0 °F 44.1 °F 35% 30.15 in 10.0 mi SSE 16.1 mph 21.9 mph N/A   Overcast
1:53 PM 72.0 °F 46.0 °F 40% 30.14 in 10.0 mi South 13.8 mph 19.6 mph N/A   Overcast
2:53 PM 73.9 °F 46.0 °F 37% 30.12 in 10.0 mi SSE 12.7 mph 20.7 mph N/A   Overcast
3:53 PM 75.0 °F 45.0 °F 34% 30.11 in 10.0 mi SE 12.7 mph 21.9 mph N/A   Mostly Cloudy
4:53 PM 75.0 °F 46.0 °F 36% 30.09 in 10.0 mi South 11.5 mph 21.9 mph N/A   Overcast
5:53 PM 75.0 °F 46.9 °F 37% 30.09 in 10.0 mi SSE 15.0 mph 23.0 mph N/A   Mostly Cloudy
6:53 PM 73.0 °F 48.0 °F 41% 30.09 in 10.0 mi SE 16.1 mph 24.2 mph N/A   Clear
7:53 PM 70.0 °F 50.0 °F 49% 30.10 in 10.0 mi SE 18.4 mph 26.5 mph N/A   Clear
8:53 PM 66.9 °F 51.1 °F 57% 30.12 in 10.0 mi SE 16.1 mph 24.2 mph N/A   Clear
9:53 PM 64.9 °F 52.0 °F 63% 30.15 in 10.0 mi SSE 8.1 mph - N/A   Clear
10:53 PM 63.0 °F 51.1 °F 65% 30.15 in 10.0 mi SSE 11.5 mph - N/A   Clear
11:53 PM 61.0 °F 53.1 °F 75% 30.16 in 10.0 mi South 8.1 mph - N/A   Clear